logo
Rechercher aéroport 
image banner adimage banner adimage banner ad
image banner ad

ZBHH - Hohhot/Baita

Situé à Hohhot, China

ICAO - ZBHH, IATA - HET

Données fournies par Airmate  

Information générale

Coordonnées: N40°50'54" E111°49'24"
Élévation : 3556 feet MSL.
 
Voir autres Aéroports à Inner Mongolia Autonomous Region

Données opérationnelles

Special qualification required
Heure actuelle UTC:
Heure actuelle locale:
Météo
METAR: ZBHH 161800Z 04002MPS CAVOK 16/12 Q1011 NOSIG
TAF: TAF ZBHH 161502Z 1618/1718 06004MPS 9999 FEW040 TX30/1707Z TN16/1622Z
Voir NOTAMs / SUP AIP / TFR affectant cet aéroport [VIEW]
Fréquences de communication: [VIEW]

Pistes:

Identifiant RWYQFULongueur (ft)Largeur (ft)SurfaceLDA (ft)
0873°11811148CON
26253°11811148CON

Coordonnées de l'aéroport

Adresse: Hohhot China

Vue satellite de ZBHH